COSMOS 1525

Satellite information

Favourite Embed

Satellite Type and Status

PAYLOADIN ORBIT

Key statistics

Satellite COSMOS 1525 at a glance.

Uptime

15278

Days in orbit

Revolutions

≈ 12.5

Per day

Orbit

LEO

Low Earth Orbit

Inclination

74.0

Latest

Satellite identification and parameters

Extended collection of information and parameters for COSMOS 1525.

Object identification

Identified? True

Debris? False

Object name: COSMOS 1525

International designator: 1984-001D

Object number (NORAD): 14614

Object ID (CCSDS): 14614

Country: COMMONWEALTH OF INDEPENDENT STATES (CIS)

Current information (Y/N): Y

RCS size: MEDIUM

Orbital parameters

Period: 114.75 minutes

Inclination: 74.0091 deg

SMA: 7822.174 km

Apoapsis: 1461.219 km

Periapsis: 1426.86 km

RAAN: 65.5384 deg

Eccentricy: 0.0021962

Argument of periapsis: 2.1563 deg

Mean anomaly: 63.0768 deg

Mean motion: 12.5490692 rev/day

Mean motion (dot): -0.00000022 rev/day2

B* drag term: -0.000036284 1/REarth

Two-line elements (TLE)

Creation date: Nov. 2, 2025, 3:46 p.m.

Reference frame: TEME

Reference center: EARTH

Epoch: Nov. 2, 2025, 11:22 a.m. UTC

TLE line 0: 0 COSMOS 1525

TLE line 1: 1 14614U 84001D 25306.47365880 -.00000022 00000-0 -36284-4 0 9999

TLE line 2: 2 14614 74.0091 65.5384 0021962 2.1563 63.0768 12.54906920916001

Live tracking on map

Real-time ground track for satellite COSMOS 1525.

In-orbit conjunctions

There are no conjunctions computed for COSMOS 1525, at the moment. Check back to stay up to date, as we update our databases every day.

Go to all conjunctions

Associated space launch

Military communications satellites

COSMOS 1525 was lifted into orbit during the mission ‘Kosmos-3M | Strela-1M 273-280’, on board a Kosmos-3M space rocket.

The launch took place on Jan. 5, 1984, 8:09 p.m. from 132/2.

For more information about the launch, click the button.

Launch to space Kosmos-3M | Strela-1M 273-280
Kosmos-3M | Strela-1M 273-280

Agency: N/A

Status: Launch Successful

Launch date: Jan. 5, 1984, 8:09 p.m. UTC

Rocket: Kosmos-3M

Launch pad: 132/2

Location: Plesetsk Cosmodrome, Russian Federation

...

Latest news about this satellite

There are no fresh news available about this satellite. Check back as we update our databases every day.


Newsletter sign-up

Weekly statistics, charts and insights to help you stay on top of the space industry.